This demonstration page uses our WeatherBlox Daily Observations layout. Learn more.

41.55636, -103.73856

Hourly Observations for December 23, 2015

Temp ( °F °C ) Dew Point ( °F °C ) Humidity (%) Winds ( mph kmh ) Pressure ( in mb ) Visibility ( mi km ) Precip ( " mm )
12:53 am 00:53 Clear 20 -6.7 14 -10 78 78 NNW 6 9 29.44 997 10 16.0934 0 0
1:53 am 01:53 Clear 17 -8.3 11 -11.7 77 77 NNE 6 9 29.44 997 10 16.0934 0 0
2:53 am 02:53 Clear 15 -9.4 11 -11.7 84 84 Calm 29.45 997 10 16.0934 0 0
3:53 am 03:53 Clear 15 -9.4 10 -12.2 80 80 NNW 9 15 29.46 998 10 16.0934 0 0
4:53 am 04:53 Clear 14 -10 10 -12.2 84 84 W 8 13 29.48 998 10 16.0934 0 0
5:53 am 05:53 Clear 14 -10 10 -12.2 84 84 NNW 7 11 29.5 999 10 16.0934 0 0
6:53 am 06:53 Clear 15 -9.4 10 -12.2 80 80 NNW 7 11 29.52 1000 10 16.0934 0 0
7:53 am 07:53 Sunny 14 -10 9 -12.8 80 80 N 8 13 29.53 1000 10 16.0934 0 0
8:53 am 08:53 Sunny 20 -6.7 13 -10.6 74 74 NW 7 11 29.54 1000 10 16.0934 0 0
9:53 am 09:53 Sunny 27 -2.8 16 -8.9 63 63 WNW 9 15 29.53 1000 10 16.0934 0 0
10:53 am 10:53 Sunny 29 -1.7 17 -8.3 61 61 NW 8 13 29.52 1000 10 16.0934 0 0
11:53 am 11:53 Sunny 31 -0.6 18 -7.8 59 59 W 7 11 29.5 999 10 16.0934 0 0
12:53 pm 12:53 Sunny 33 0.6 18 -7.8 54 54 WNW 9 15 29.48 998 10 16.0934 0 0
1:53 pm 13:53 Sunny 35 1.7 17 -8.3 48 48 NW 6 9 29.49 999 10 16.0934 0 0
2:53 pm 14:53 Sunny 34 1.1 18 -7.8 52 52 E 3 6 29.48 998 10 16.0934 0 0
3:53 pm 15:53 Sunny 31 -0.6 19 -7.2 61 61 S 6 9 29.53 1000 10 16.0934 0 0
4:53 pm 16:53 Mostly Clear 26 -3.3 19 -7.2 75 75 NE 6 9 29.56 1001 10 16.0934 0 0
5:53 pm 17:53 Cloudy 28 -2.2 18 -7.8 66 66 Calm 29.59 1002 10 16.0934 0 0
6:53 pm 18:53 Cloudy 29 -1.7 22 -5.6 75 75 SSW 8 13 29.61 1003 10 16.0934 0 0
7:53 pm 19:53 Cloudy 27 -2.8 23 -5 85 85 SSE 6 9 29.63 1003 10 16.0934 0 0.0254
8:53 pm 20:53 Clear 29 -1.7 20 -6.7 69 69 SW 8 13 29.6 1003 10 16.0934 0 0
9:53 pm 21:53 Clear 28 -2.2 13 -10.6 53 53 WSW 12 19 29.58 1002 10 16.0934 0 0
10:53 pm 22:53 Mostly Clear 28 -2.2 12 -11.1 51 51 W 18 30 29.57 1001 10 16.0934 0 0
11:53 pm 23:53 Clear 27 -2.8 14 -10 58 58 W 18 30 29.57 1002 10 16.0934 0 0

Powered by AerisWeather